Location: Hamburg
(53.5500°N, 10.0000°E)
Time: 07:25:59
(UTC+02:00)

A-11 Canister half - All Passes

Search period start: 25 September 2016 00:00
Search period end: 05 October 2016 00:00
Orbit: 1525 x 1684 km, 47.3° (Epoch: 23 September)

Date Brightness Start Highest point End Pass type
(mag) Time Alt. Az. Time Alt. Az. Time Alt. Az.
25 Sep - 11:20:50 10° SSE 11:25:54 16° SE 11:31:00 10° E daylight
25 Sep - 13:20:17 10° SW 13:28:45 41° SSE 13:37:25 10° E daylight
25 Sep - 15:23:32 10° WSW 15:32:42 60° S 15:42:10 10° E daylight
25 Sep - 17:27:51 10° W 17:36:57 53° SSW 17:46:21 10° SE daylight
25 Sep - 19:32:49 10° W 19:40:32 28° SW 19:48:28 10° SSE visible
26 Sep - 10:59:45 10° SSE 11:04:27 15° SE 11:09:11 10° E daylight
26 Sep - 12:58:51 10° SSW 13:07:14 39° SSE 13:15:48 10° E daylight
26 Sep - 15:02:00 10° WSW 15:11:09 60° S 15:20:35 10° E daylight
26 Sep - 17:06:18 10° W 17:15:24 54° SSW 17:24:49 10° SE daylight
26 Sep - 19:11:12 10° W 19:19:02 29° SW 19:27:04 10° SSE daylight
27 Sep - 10:38:42 10° SSE 10:43:00 14° SE 10:47:19 10° E daylight
27 Sep - 12:37:25 10° SSW 12:45:43 38° SSE 12:54:12 10° E daylight
27 Sep - 14:40:29 10° WSW 14:49:36 59° S 14:58:59 10° E daylight
27 Sep - 16:44:45 10° W 16:53:51 54° SSW 17:03:16 10° ESE daylight
27 Sep - 18:49:36 10° W 18:57:31 30° SW 19:05:38 10° SSE daylight
28 Sep - 10:17:43 10° SSE 10:21:33 13° SE 10:25:24 10° E daylight
28 Sep - 12:16:00 10° SSW 12:24:13 37° SSE 12:32:36 10° E daylight
28 Sep - 14:18:57 10° WSW 14:28:03 59° S 14:37:24 10° E daylight
28 Sep - 16:23:12 10° W 16:32:18 55° SSW 16:41:42 10° ESE daylight
28 Sep - 18:28:00 10° W 18:36:01 31° SW 18:44:13 10° SSE daylight
29 Sep - 09:56:49 10° SSE 10:00:06 12° SE 10:03:24 10° ESE daylight
29 Sep - 11:54:35 10° SSW 12:02:43 36° SE 12:11:00 10° E daylight
29 Sep - 13:57:26 10° WSW 14:06:30 58° S 14:15:49 10° E daylight
29 Sep - 16:01:39 10° W 16:10:46 56° SSW 16:20:09 10° ESE daylight
29 Sep - 18:06:25 10° W 18:14:30 32° SW 18:22:48 10° SSE daylight
30 Sep - 09:36:03 10° SE 09:38:40 11° SE 09:41:16 10° ESE daylight
30 Sep - 11:33:10 10° SSW 11:41:13 35° SE 11:49:23 10° E daylight
30 Sep - 13:35:56 10° WSW 13:44:57 57° SSE 13:54:14 10° E daylight
30 Sep - 15:40:07 10° W 15:49:13 56° SSW 15:58:35 10° ESE daylight
30 Sep - 17:44:51 10° W 17:52:59 34° SW 18:01:22 10° SSE daylight
30 Sep - 19:53:33 10° WSW 19:55:36 11° WSW 19:57:39 10° SW visible
01 Oct - 09:15:37 10° SE 09:17:13 11° ESE 09:18:50 10° ESE daylight
01 Oct - 11:11:46 10° SSW 11:19:43 34° SE 11:27:47 10° E daylight
01 Oct - 13:14:24 10° WSW 13:23:25 57° SSE 13:32:39 10° E daylight
01 Oct - 15:18:35 10° W 15:27:40 57° SSW 15:37:02 10° ESE daylight
01 Oct - 17:23:15 10° W 17:31:28 35° SW 17:39:55 10° SSE daylight
01 Oct - 19:31:16 10° WSW 19:34:08 12° SW 19:37:02 10° SW visible
02 Oct - 10:50:22 10° SSW 10:58:14 32° SE 11:06:11 10° E daylight
02 Oct - 12:52:54 10° WSW 13:01:53 56° SSE 13:11:05 10° E daylight
02 Oct - 14:57:02 10° W 15:06:07 58° S 15:15:28 10° ESE daylight
02 Oct - 17:01:41 10° W 17:09:57 36° SW 17:18:27 10° SSE daylight
02 Oct - 19:09:12 10° WSW 19:12:40 12° SW 19:16:12 10° SSW daylight
03 Oct - 10:28:58 10° SSW 10:36:43 31° SE 10:44:34 10° E daylight
03 Oct - 12:31:24 10° WSW 12:40:21 55° SSE 12:49:29 10° E daylight
03 Oct - 14:35:29 10° W 14:44:34 58° S 14:53:54 10° ESE daylight
03 Oct - 16:40:06 10° W 16:48:26 37° SSW 16:57:00 10° SSE daylight
03 Oct - 18:47:14 10° W 18:51:13 13° SW 18:55:14 10° SSW daylight
04 Oct - 10:07:36 10° SSW 10:15:15 30° SE 10:22:57 10° E daylight
04 Oct - 12:09:53 10° WSW 12:18:48 54° SSE 12:27:55 10° E daylight
04 Oct - 14:13:56 10° W 14:23:02 59° S 14:32:21 10° ESE daylight
04 Oct - 16:18:32 10° W 16:26:55 38° SSW 16:35:31 10° SSE daylight
04 Oct - 18:25:22 10° W 18:29:45 14° SW 18:34:12 10° SSW daylight
